Location: Newark
(43.4306°N, 0.3089°E)
Time: 10:03:32
(UTC+00:00)

S-56A Canister/Altair - Pass Details

Date: 19 August 2019
Orbit: 633 x 2499 km, 38.9° (Epoch: 15 September)

Event Time Altitude Azimuth Distance (km) Brightness Sun altitude
Rises 00:17:10 0° 260° (W) 2,927 - -33.5°
Reaches altitude 10° 00:19:21 10° 255° (WSW) 2,064 - -33.5°
Maximum altitude 00:23:50 53° 179° (S) 913 - -33.4°
Drops below altitude 10° 00:29:37 10° 104° (ESE) 2,656 - -33.3°
Exits shadow 00:31:29 - 101° (E) 3,380 10.8 -33.3°
Sets 00:32:45 0° 100° (E) 3,868 11.1 -33.2°
